Wind_Speed
14 14 14 16 18 18 19 19 18 18 19 21 20 20 19 18 20 20 20 19 19 19 19 19 19 19 17 16 15 14 15 15 15 15 15 14 14 13 13 14 14 15 15 15
14 14 15 17 18 18 19 19 18 17 19 20 19 19 18 18 19 19 19 18 18 19 20 19 19 19 17 16 15 15 15 16 16 16 16 15 15 15 15 15 15 15 14 14
15 15 16 17 18 18 18 18 17 17 18 19 19 18 18 19 19 18 18 18 18 19 19 19 19 19 18 17 16 16 16 16 15 16 15 16 16 16 16 16 15 15 14 13
16 17 18 18 18 18 17 17 17 17 18 19 19 19 17 18 18 18 18 18 18 19 18 18 18 18 17 16 16 16 16 15 15 15 15 16 16 16 14 14 14 14 14 14
17 17 18 19 18 18 17 17 18 18 18 19 19 19 16 17 18 17 17 17 18 18 18 18 18 17 17 17 16 16 15 14 14 14 14 15 14 15 14 13 14 14 15 15
17 18 19 19 19 19 19 18 18 18 18 19 18 20 19 18 18 17 17 17 17 18 18 18 18 17 17 16 15 15 15 15 15 14 14 13 13 13 13 14 14 14 15 15
19 20 20 20 20 20 19 19 20 20 20 20 19 20 19 18 18 18 18 18 18 18 18 17 17 16 16 16 15 15 15 15 15 15 15 14 13 13 13 14 14 14 15 16
20 19 19 20 20 20 20 20 22 22 22 20 19 19 19 18 18 19 19 19 18 18 17 17 17 16 16 16 15 14 14 15 15 15 15 15 15 14 14 14 14 15 15 16
20 18 19 20 20 20 21 21 21 23 22 22 21 20 19 19 19 19 19 19 19 17 17 17 17 16 16 15 15 15 14 15 15 15 16 17 16 15 15 15 15 15 16 17
20 19 18 18 20 20 21 21 22 22 23 23 21 19 18 18 19 19 20 19 18 18 18 18 17 17 17 16 15 15 15 15 16 16 16 15 15 16 16 17 17 17 17 18
22 22 20 20 21 21 22 22 23 24 24 23 22 20 19 19 20 20 20 20 20 20 19 19 18 18 17 16 16 16 15 16 16 16 15 15 16 17 17 17 18 18 18 18
23 23 22 22 22 23 23 24 24 25 25 25 24 21 19 19 19 19 20 21 21 21 21 20 19 19 18 17 17 17 16 16 15 15 16 17 17 17 17 18 19 19 20 20
23 23 23 22 23 24 24 24 25 25 26 26 25 22 20 20 19 19 20 20 21 21 21 21 20 20 19 19 18 17 16 16 16 16 17 17 18 18 19 19 19 20 21 21
25 25 24 24 24 24 24 25 25 25 26 25 24 22 20 20 20 20 20 20 20 20 20 21 20 20 19 20 20 19 17 17 17 17 17 18 19 20 20 19 20 20 21 21
26 26 25 25 25 25 24 24 25 24 24 24 23 22 20 20 19 20 20 20 20 20 19 19 19 20 20 20 20 19 18 18 19 19 19 19 20 20 19 19 20 21 22 22
26 27 26 26 25 25 25 24 23 23 24 23 23 23 23 21 21 20 20 20 19 19 18 18 18 19 20 19 19 19 19 20 20 20 20 19 19 19 20 21 21 21 21 22
27 27 27 27 27 26 26 24 23 23 24 25 25 23 23 22 21 21 20 20 20 19 18 18 18 19 19 19 20 20 20 20 21 20 20 19 19 20 20 21 21 21 22 22
27 27 28 28 28 28 26 25 24 23 23 25 25 24 24 23 22 22 21 21 21 19 18 18 19 18 18 18 19 19 20 20 20 20 19 19 20 20 20 21 21 22 22 22
26 25 26 26 27 27 26 26 25 24 24 23 23 23 23 23 22 22 22 22 22 20 19 18 18 17 18 19 19 19 20 20 19 19 19 19 20 20 20 21 21 21 22 22
26 25 25 25 26 27 27 27 26 26 26 24 24 24 24 23 22 21 21 22 21 21 20 20 20 20 19 20 20 20 20 21 21 21 21 21 21 21 21 21 21 21 22 21
25 25 25 25 26 26 26 27 26 26 27 26 25 24 24 24 23 22 22 22 22 21 21 20 20 21 21 22 22 22 22 22 21 21 21 21 21 21 21 21 21 22 22 21
24 25 25 25 26 25 25 26 26 26 26 26 25 25 25 25 24 23 23 23 23 23 23 22 22 22 22 22 22 23 23 22 22 22 21 21 21 21 22 22 22 21 21 21
23 23 24 25 24 24 25 25 25 26 25 25 24 23 24 24 24 23 23 23 23 23 23 23 23 23 23 23 24 23 22 22 22 21 21 22 21 22 23 23 22 22 22 22
23 22 22 23 23 24 25 24 25 25 25 24 24 24 23 23 23 23 23 23 22 22 23 23 23 24 24 24 23 22 21 21 21 21 21 22 22 22 22 23 23 23 22 21
22 22 22 22 22 23 23 24 23 24 24 23 24 24 24 23 23 22 22 21 21 22 21 22 22 23 23 23 22 22 22 22 21 21 21 22 22 22 22 23 23 23 22 23
21 21 22 22 21 22 22 22 23 23 23 23 24 24 24 24 24 24 23 22 22 22 22 22 23 23 23 23 23 23 23 23 23 22 22 22 22 22 22 22 22 22 23 23
Wind_Direction
259 259 261 263 262 262 262 262 261 261 263 265 267 266 264 264 267 269 272 277 279 279 283 290 296 296 292 289 288 282 277 272 271 270 267 265 266 269 271 268 266 264 262 258
259 260 263 264 265 265 264 263 264 263 266 269 270 267 265 267 270 272 273 277 280 279 282 286 291 292 290 288 286 282 277 275 273 270 267 264 263 265 266 265 264 265 262 258
260 259 262 264 265 268 268 268 268 269 268 272 274 270 270 270 272 272 273 277 282 282 284 286 287 289 288 287 284 282 277 273 269 268 268 269 266 266 263 260 260 259 257 258
256 256 261 266 268 269 269 269 271 273 272 272 274 275 271 271 271 273 275 278 281 281 283 285 289 289 287 286 282 280 278 275 270 270 268 270 268 264 262 258 259 256 258 260
256 256 261 266 269 269 268 271 274 275 273 273 274 276 275 272 274 276 278 278 279 280 282 283 287 289 289 288 284 280 278 274 271 270 270 270 268 263 259 259 263 260 262 261
259 258 263 266 267 268 268 270 272 273 272 272 273 277 278 276 277 278 278 277 276 278 281 282 285 285 287 284 281 280 278 273 270 271 270 272 269 265 263 261 262 263 264 263
258 258 262 265 265 267 270 271 274 273 273 275 274 277 279 278 277 278 278 277 275 278 279 282 282 281 285 283 281 280 278 273 270 271 270 272 268 265 266 265 262 265 267 268
259 258 259 261 263 267 269 271 274 275 278 278 276 280 281 279 277 278 278 278 276 276 279 282 283 282 284 283 280 275 274 271 270 271 271 270 268 267 267 265 264 266 268 268
264 260 257 259 262 264 266 270 274 275 276 276 278 280 280 278 276 276 277 279 279 278 280 285 288 285 284 283 280 276 272 273 274 274 272 270 267 267 269 268 267 267 267 267
264 260 256 258 259 262 265 269 273 275 276 278 278 279 280 277 276 276 276 277 277 279 281 283 285 278 276 277 278 276 275 276 272 273 272 269 268 268 270 270 268 269 270 269
262 260 257 258 259 262 264 267 268 270 271 275 278 279 280 279 277 276 275 274 275 276 278 281 282 277 275 275 274 275 276 274 272 270 268 267 266 269 270 270 269 270 272 271
262 261 259 258 259 260 264 268 268 267 269 273 276 279 281 281 278 277 276 275 275 275 275 275 277 277 275 273 275 275 274 273 272 270 269 268 268 269 270 271 270 272 274 274
262 264 264 261 260 260 261 263 268 269 270 272 274 278 281 281 279 279 278 278 277 276 274 274 275 274 274 271 273 272 272 273 273 275 274 272 271 271 273 272 273 274 276 276
262 263 266 267 267 265 263 263 266 268 271 272 272 275 276 278 279 279 280 281 280 278 275 273 272 273 273 272 272 271 273 275 275 275 275 274 272 272 273 273 273 275 276 276
262 263 263 265 266 266 266 265 266 268 272 273 273 275 277 278 279 281 283 282 279 279 276 273 271 269 269 269 270 270 273 275 275 274 274 275 274 274 273 275 275 275 277 277
262 264 265 265 266 266 267 268 268 267 268 270 271 273 274 275 277 279 282 281 280 279 275 272 269 267 266 268 271 273 273 274 273 272 273 274 274 274 276 278 278 277 277 278
261 262 264 264 263 265 266 267 268 269 266 266 270 271 272 272 275 276 278 279 278 276 275 270 270 272 272 272 271 272 273 274 274 274 274 273 274 276 277 277 278 279 280 282
261 262 263 263 262 263 265 267 267 268 268 267 268 270 271 271 274 275 275 277 277 274 275 273 271 271 271 272 273 275 274 275 275 273 273 275 274 276 277 277 279 280 280 281
263 263 263 262 262 263 264 266 267 267 268 267 267 268 271 271 269 271 272 271 274 273 271 272 271 271 268 269 272 276 276 275 274 274 275 275 275 275 275 277 279 280 281 281
262 261 262 263 264 264 266 266 267 267 267 267 268 269 271 271 269 269 269 268 270 271 269 269 269 270 270 270 272 275 276 274 274 275 276 276 275 275 275 278 280 281 281 282
262 261 261 263 263 264 265 266 266 266 267 267 268 270 268 266 267 268 268 268 266 268 269 269 267 268 269 270 271 273 273 272 273 275 275 275 276 277 278 280 281 282 282 282
263 262 261 261 262 262 264 264 263 265 266 266 266 267 267 265 264 264 266 268 268 268 270 270 269 268 269 270 272 272 271 270 270 272 274 275 277 277 279 280 281 282 282 282
262 263 263 262 262 263 262 263 263 265 265 264 265 266 265 264 263 264 265 267 268 268 270 273 271 270 271 272 272 271 270 269 268 270 272 274 276 277 278 280 280 280 281 281
260 261 262 261 261 262 263 264 264 263 263 263 264 267 267 265 264 266 267 266 268 270 271 272 271 270 271 271 270 269 269 269 270 272 274 275 275 276 276 277 279 280 279 279
263 263 264 264 263 263 262 262 262 262 261 260 263 267 267 266 265 266 267 267 268 268 270 271 274 274 274 273 272 272 273 272 273 274 275 276 276 276 276 277 278 279 279 279
264 265 265 264 265 264 262 262 262 261 260 261 263 266 266 266 266 268 268 267 268 270 272 274 274 276 275 275 275 275 275 274 277 279 279 279 279 279 279 279 278 278 279 280
Height
5834 5835 5835 5834 5834 5834 5834 5834 5835 5836 5835 5835 5835 5835 5836 5836 5836 5837 5837 5837 5836 5836 5835 5834 5832 5831 5830 5828 5827 5826 5826 5826 5826 5826 5827 5827 5828 5829 5829 5829 5829 5830 5831 5832
5832 5832 5832 5830 5830 5830 5830 5830 5831 5832 5831 5830 5830 5830 5831 5831 5832 5832 5832 5833 5832 5832 5831 5830 5829 5827 5826 5824 5823 5823 5822 5822 5822 5823 5823 5824 5824 5824 5825 5826 5826 5827 5827 5828
5828 5829 5827 5827 5827 5826 5826 5826 5827 5827 5827 5826 5826 5827 5827 5827 5827 5828 5828 5828 5828 5827 5826 5825 5824 5823 5822 5821 5820 5819 5818 5818 5818 5818 5819 5819 5820 5820 5821 5822 5822 5823 5823 5824
5824 5824 5824 5823 5823 5823 5823 5823 5823 5823 5822 5822 5823 5822 5824 5823 5824 5824 5824 5824 5824 5823 5822 5821 5820 5819 5818 5817 5815 5814 5814 5814 5814 5814 5815 5815 5816 5816 5817 5818 5819 5819 5820 5821
5821 5820 5820 5820 5820 5819 5820 5820 5819 5819 5818 5819 5819 5818 5820 5820 5820 5821 5821 5820 5820 5819 5818 5817 5816 5815 5814 5813 5811 5810 5810 5810 5810 5810 5811 5811 5812 5813 5813 5814 5815 5816 5816 5817
5817 5816 5816 5817 5817 5816 5815 5815 5815 5815 5814 5815 5815 5814 5816 5816 5817 5817 5817 5816 5816 5815 5814 5813 5812 5811 5810 5808 5807 5806 5806 5806 5806 5806 5807 5807 5808 5808 5809 5810 5812 5812 5812 5813
5812 5812 5812 5812 5812 5812 5812 5812 5811 5810 5811 5811 5812 5810 5812 5812 5812 5812 5812 5812 5812 5811 5810 5809 5808 5807 5806 5805 5803 5802 5802 5802 5802 5802 5803 5803 5804 5805 5806 5806 5807 5808 5808 5808
5807 5808 5808 5808 5808 5808 5808 5808 5808 5807 5806 5807 5807 5807 5808 5808 5808 5808 5808 5807 5807 5807 5806 5805 5804 5803 5802 5801 5800 5799 5798 5798 5798 5799 5799 5799 5800 5800 5801 5802 5803 5803 5804 5804
5802 5803 5803 5803 5803 5803 5803 5803 5803 5803 5802 5802 5802 5803 5804 5803 5803 5803 5803 5803 5802 5802 5801 5801 5800 5799 5798 5797 5796 5795 5795 5794 5794 5794 5795 5795 5795 5796 5797 5797 5798 5799 5799 5799
5797 5798 5799 5799 5799 5798 5799 5798 5798 5798 5797 5796 5797 5798 5799 5798 5798 5798 5798 5798 5797 5797 5797 5796 5796 5795 5794 5793 5792 5792 5792 5791 5790 5791 5791 5791 5792 5792 5793 5793 5794 5794 5794 5794
5792 5792 5794 5793 5793 5794 5794 5794 5793 5793 5792 5792 5792 5795 5794 5793 5793 5793 5793 5792 5793 5792 5792 5791 5791 5790 5789 5788 5788 5788 5787 5787 5787 5787 5787 5787 5788 5788 5789 5789 5789 5789 5789 5789
5786 5787 5787 5788 5789 5788 5788 5788 5788 5788 5788 5787 5787 5791 5788 5788 5788 5787 5787 5787 5787 5787 5786 5786 5785 5785 5784 5784 5783 5783 5783 5783 5783 5783 5783 5783 5783 5784 5784 5784 5784 5784 5784 5783
5781 5781 5781 5782 5784 5783 5782 5783 5783 5783 5782 5782 5782 5785 5783 5782 5782 5782 5782 5782 5781 5780 5780 5780 5779 5779 5779 5779 5779 5778 5778 5778 5778 5778 5778 5778 5778 5778 5778 5778 5778 5778 5778 5777
5774 5774 5776 5777 5777 5777 5777 5777 5777 5777 5776 5776 5776 5777 5778 5777 5777 5777 5776 5776 5775 5774 5774 5774 5774 5774 5774 5774 5774 5774 5773 5773 5773 5773 5773 5773 5773 5773 5773 5773 5772 5772 5772 5771
5767 5768 5768 5769 5770 5770 5771 5771 5771 5771 5771 5771 5772 5771 5772 5772 5772 5771 5770 5770 5769 5769 5768 5768 5768 5768 5768 5768 5769 5769 5768 5768 5768 5768 5768 5767 5767 5767 5767 5767 5766 5766 5765 5765
5760 5761 5761 5762 5763 5763 5763 5764 5765 5765 5765 5765 5766 5766 5767 5766 5766 5766 5765 5764 5764 5764 5763 5763 5762 5762 5762 5763 5763 5763 5763 5763 5762 5762 5762 5762 5762 5761 5761 5761 5760 5760 5759 5758
5753 5754 5754 5755 5756 5756 5757 5758 5759 5759 5759 5760 5760 5761 5761 5761 5761 5760 5760 5759 5759 5758 5758 5757 5757 5757 5757 5757 5757 5757 5757 5757 5757 5756 5756 5756 5756 5755 5755 5754 5754 5753 5752 5751
5746 5746 5747 5747 5749 5749 5753 5752 5753 5753 5753 5753 5754 5754 5755 5755 5755 5754 5754 5754 5753 5753 5752 5752 5752 5752 5752 5752 5752 5752 5751 5751 5751 5750 5750 5750 5749 5749 5748 5748 5747 5746 5745 5744
5739 5739 5739 5740 5741 5742 5745 5745 5746 5746 5747 5747 5747 5748 5748 5748 5749 5748 5748 5748 5747 5747 5747 5747 5747 5747 5747 5747 5746 5746 5746 5746 5745 5745 5744 5744 5743 5743 5742 5741 5741 5739 5738 5737
5732 5732 5733 5733 5733 5735 5738 5738 5739 5740 5740 5741 5741 5741 5742 5742 5742 5743 5742 5742 5742 5742 5742 5741 5741 5742 5741 5741 5741 5741 5740 5740 5740 5739 5739 5738 5737 5737 5736 5735 5734 5733 5732 5731
5724 5725 5726 5726 5726 5727 5730 5730 5732 5734 5734 5734 5733 5734 5735 5735 5736 5737 5736 5736 5736 5736 5736 5736 5736 5736 5735 5735 5735 5735 5734 5734 5734 5733 5732 5732 5731 5730 5730 5729 5728 5727 5725 5724
5717 5718 5718 5719 5720 5723 5723 5723 5724 5725 5725 5725 5726 5727 5727 5728 5728 5729 5729 5729 5729 5729 5730 5730 5730 5729 5729 5729 5728 5728 5728 5727 5727 5727 5726 5725 5725 5724 5723 5722 5721 5720 5719 5718
5710 5712 5712 5713 5715 5715 5715 5716 5716 5717 5718 5718 5719 5720 5720 5721 5722 5723 5723 5723 5723 5723 5723 5723 5723 5723 5722 5722 5722 5721 5721 5721 5720 5720 5719 5719 5718 5718 5717 5716 5715 5714 5713 5712
5703 5704 5705 5706 5707 5708 5708 5708 5709 5710 5711 5712 5712 5713 5714 5714 5715 5716 5716 5716 5717 5717 5717 5716 5716 5716 5716 5715 5714 5714 5714 5714 5713 5713 5713 5712 5711 5711 5710 5709 5708 5707 5706 5705
5697 5697 5698 5699 5700 5701 5701 5702 5702 5703 5704 5704 5705 5706 5707 5707 5708 5708 5709 5709 5710 5710 5709 5709 5709 5709 5709 5708 5707 5706 5706 5706 5706 5706 5705 5705 5704 5703 5703 5702 5701 5700 5699 5698
5691 5691 5692 5692 5693 5693 5694 5695 5695 5696 5696 5697 5698 5699 5699 5700 5700 5701 5701 5702 5702 5702 5702 5702 5702 5701 5701 5701 5700 5700 5699 5699 5699 5698 5698 5698 5697 5697 5696 5695 5694 5693 5692 5691